Regional Weather Roundup
Issued by NWS

Home | Current Version | Previous Version | Graphics & Text | Print | Product List | Glossary On
Versions: 1 2 3 4 5 6 7 8 9 10 11 12 13 14 15 16 17 18 19 20 21 22 23 24 25 26 27 28 29 30 31 32 33 34 35 36 37 38 39 40 41 42 43 44 45 46 47 48 49 50
502
ASUS43 KFSD 281802
RWRSD

WEATHER ROUNDUP FOR SOUTH DAKOTA
NATIONAL WEATHER SERVICE SIOUX FALLS SD
100 PM CDT WED SEP 28 2016

NOTE: "FAIR" INDICATES FEW OR NO CLOUDS BELOW 12,000 FEET WITH NO
SIGNIFICANT WEATHER AND/OR OBSTRUCTIONS TO VISIBILITY.


SDZ001>005-009-010-012>017-281900-
NORTHWEST AND NORTH CENTRAL SOUTH DAKOTA

CITY           SKY/WX    TMP DP  RH WIND       PRES   REMARKS
BUFFALO          N/A     77  50  38 CALM      30.19S
MOBRIDGE       SUNNY     65  41  41 SE8       30.26S
$$

SDZ012>016-024>037-041>051-057-063-072>074-281900-
SOUTHWEST AND SOUTH CENTRAL SOUTH DAKOTA

CITY           SKY/WX    TMP DP  RH WIND       PRES   REMARKS
RAPID CTY ARPT SUNNY     77  46  33 N9        30.26S
PIERRE         SUNNY     64  39  39 VRB5      30.26S
CUSTER         SUNNY     71  39  31 E13G23    30.37S
ELLSWORTH AFB  SUNNY     75  47  35 N12       30.25F
PHILIP         SUNNY     72  42  34 E9        30.25S
PINE RIDGE     SUNNY     77  44  30 NW8       30.26S
WINNER         FAIR      67  37  33 NE8       30.27S
$$

SDZ004>011-016>023-039-040-281900-
NORTHEAST SOUTH DAKOTA

CITY           SKY/WX    TMP DP  RH WIND       PRES   REMARKS
ABERDEEN       SUNNY     59  43  55 NE7       30.29S
WATERTOWN      SUNNY     60  46  59 NE8       30.26R
SISSETON         N/A     53  45  74 NE6       30.29R
$$

SDZ017-020-022-023-036>040-048>070-281900-
SOUTHEAST SOUTH DAKOTA

CITY           SKY/WX    TMP DP  RH WIND       PRES   REMARKS
SIOUX FALLS    MOSUNNY   62  46  55 N12       30.25R
HURON          SUNNY     60  44  55 MISG      30.27R
CHAMBERLAIN    SUNNY     64  47  54 NE7       30.27S
MITCHELL       SUNNY     59  44  57 VRB6      30.28S
YANKTON        SUNNY     61  45  55 N9        30.24R
$$

ABBREVIATIONS USED IN REMARKS
   TC - TEMPERATURE IN CELSIUS
  WCI - WIND CHILL INDEX
   HX - HEAT INDEX
  VSB - VISIBILITY





USA.gov is the U.S. government's official web portal to all federal, state and local government web resources and services.